• Em Portugal
  • Lista de países
  • Para 7 dias
  • Temperatura da água
  • Mapas de satélite
  • Mapa do tempo
  • Widgets de tempo
  • user-avatar
    Iniciar Sessão

    Previsão horária em Soelden

    Hoje, 22 Outubro, Segunda-feira

    Tempo Temperatura Precipitação Vento Pressão Humidade
    00:00 -2°C° 0 mm 1 m/s 584 mmHg 64%
    01:00 -2°C° 0 mm 1 m/s 584 mmHg 60%
    02:00 -2°C° 0 mm 1 m/s 584 mmHg 57%
    03:00 -2°C° 0 mm 1 m/s 583 mmHg 53%
    04:00 -2°C° 0 mm 1 m/s 583 mmHg 50%
    05:00 -2°C° 0 mm 1 m/s 583 mmHg 48%
    06:00 -2°C° 0 mm 1 m/s 583 mmHg 46%
    07:00 -2°C° 0 mm 1 m/s 583 mmHg 43%
    08:00 +1°C° 0 mm 1 m/s 585 mmHg 38%
    09:00 +4°C° 0 mm 1 m/s 586 mmHg 32%
    10:00 +7°C° 0 mm 1 m/s 587 mmHg 27%
    11:00 +7°C° 0 mm 2 m/s 588 mmHg 27%
    12:00 +8°C° 0 mm 2 m/s 588 mmHg 27%
    13:00 +9°C° 0 mm 2 m/s 588 mmHg 27%
    14:00 +8°C° 0 mm 2 m/s 588 mmHg 33%
    15:00 +7°C° 0 mm 2 m/s 587 mmHg 38%
    16:00 +6°C° 0 mm 2 m/s 587 mmHg 43%
    17:00 +3°C° 0 mm 2 m/s 586 mmHg 53%
    18:00 +1°C° 0 mm 2 m/s 586 mmHg 62%
    19:00 -2°C° 0 mm 2 m/s 585 mmHg 71%
    20:00 -3°C° 0 mm 2 m/s 585 mmHg 73%
    21:00 -3°C° 0 mm 2 m/s 586 mmHg 75%
    22:00 -3°C° 0 mm 2 m/s 586 mmHg 77%
    23:00 -3°C° 0 mm 2 m/s 586 mmHg 77%

    Amanhã, 23 Outubro, Terça-feira

    Tempo Temperatura Precipitação Vento Pressão Humidade
    00:00 -3°C° 0 mm 2 m/s 586 mmHg 76%
    01:00 -3°C° 0 mm 2 m/s 586 mmHg 76%
    02:00 -3°C° 0 mm 2 m/s 586 mmHg 74%
    03:00 -3°C° 0 mm 2 m/s 586 mmHg 73%
    04:00 -3°C° 0 mm 2 m/s 585 mmHg 71%
    05:00 -3°C° 0 mm 2 m/s 586 mmHg 72%
    06:00 -4°C° 0 mm 2 m/s 586 mmHg 72%
    07:00 -4°C° 0 mm 2 m/s 586 mmHg 73%
    08:00 -1°C° 0 mm 2 m/s 587 mmHg 63%
    09:00 +3°C° 0 mm 2 m/s 588 mmHg 53%
    10:00 +5°C° 0 mm 2 m/s 589 mmHg 44%
    11:00 +7°C° 0 mm 2 m/s 589 mmHg 39%
    12:00 +8°C° 0 mm 2 m/s 589 mmHg 34%
    13:00 +9°C° 0 mm 2 m/s 590 mmHg 29%
    14:00 +8°C° 0 mm 2 m/s 589 mmHg 33%
    15:00 +7°C° 0 mm 2 m/s 588 mmHg 38%
    16:00 +7°C° 0 mm 2 m/s 588 mmHg 42%
    17:00 +4°C° 0 mm 2 m/s 587 mmHg 50%
    18:00 +2°C° 0 mm 2 m/s 586 mmHg 57%
    19:00 -1°C° 0 mm 2 m/s 585 mmHg 65%
    20:00 -1°C° 0 mm 2 m/s 585 mmHg 62%
    21:00 -1°C° 0 mm 2 m/s 585 mmHg 60%
    22:00 -1°C° 0 mm 2 m/s 585 mmHg 57%
    23:00 -1°C° 0 mm 3 m/s 585 mmHg 54%

    Depois de amanhã, 24 Outubro, Quarta-feira

    Tempo Temperatura Precipitação Vento Pressão Humidade
    00:00 -1°C° 0 mm 3 m/s 585 mmHg 51%
    01:00 -1°C° 0 mm 3 m/s 584 mmHg 48%
    02:00 -1°C° 0 mm 3 m/s 584 mmHg 49%
    03:00 -1°C° 0 mm 3 m/s 584 mmHg 49%
    04:00 -1°C° 0 mm 3 m/s 583 mmHg 50%
    05:00 -1°C° 0 mm 3 m/s 583 mmHg 54%
    06:00 -1°C° 0 mm 3 m/s 583 mmHg 58%
    07:00 0°C° 0 mm 3 m/s 583 mmHg 62%
    08:00 +1°C° 0 mm 3 m/s 584 mmHg 62%
    09:00 +3°C° 0 mm 3 m/s 585 mmHg 62%
    10:00 +5°C° 0 mm 4 m/s 586 mmHg 62%
    11:00 +6°C° 0 mm 4 m/s 586 mmHg 61%
    12:00 +6°C° 0 mm 4 m/s 586 mmHg 60%
    13:00 +7°C° 0 mm 4 m/s 586 mmHg 59%
    14:00 +7°C° 0 mm 4 m/s 586 mmHg 62%
    15:00 +6°C° 0 mm 4 m/s 585 mmHg 65%
    16:00 +5°C° 0 mm 3 m/s 585 mmHg 68%
    17:00 +4°C° 0 mm 3 m/s 585 mmHg 73%
    18:00 +2°C° 0 mm 3 m/s 584 mmHg 78%
    19:00 +1°C° 0 mm 3 m/s 584 mmHg 84%
    20:00 0°C° 0 mm 3 m/s 584 mmHg 84%
    21:00 0°C° 0 mm 3 m/s 584 mmHg 85%
    22:00 0°C° 0 mm 3 m/s 584 mmHg 86%
    23:00 0°C° 0 mm 3 m/s 584 mmHg 86%

    25 Outubro, Quinta-feira

    Tempo Temperatura Precipitação Vento Pressão Humidade
    00:00 -1°C° 0 mm 2 m/s 584 mmHg 86%
    01:00 -1°C° 0 mm 2 m/s 584 mmHg 87%
    02:00 -1°C° 0 mm 2 m/s 584 mmHg 87%
    03:00 -2°C° 0 mm 2 m/s 583 mmHg 87%
    04:00 -2°C° 0 mm 2 m/s 583 mmHg 87%
    05:00 -2°C° 0 mm 2 m/s 583 mmHg 85%
    06:00 -3°C° 0 mm 2 m/s 583 mmHg 84%
    07:00 -3°C° 0 mm 2 m/s 583 mmHg 82%
    08:00 +2°C° 0 mm 1 m/s 584 mmHg 70%
    09:00 +5°C° 0 mm 1 m/s 585 mmHg 57%
    10:00 +8°C° 0 mm 1 m/s 587 mmHg 44%
    11:00 +9°C° 0 mm 1 m/s 587 mmHg 41%
    12:00 +10°C° 0 mm 1 m/s 587 mmHg 38%
    13:00 +11°C° 0 mm 1 m/s 587 mmHg 35%
    14:00 +10°C° 0 mm 1 m/s 587 mmHg 42%
    15:00 +9°C° 0 mm 1 m/s 586 mmHg 49%
    16:00 +8°C° 0 mm 1 m/s 585 mmHg 56%
    17:00 +6°C° 0 mm 1 m/s 584 mmHg 65%
    18:00 +4°C° 0 mm 1 m/s 583 mmHg 73%
    19:00 +2°C° 0 mm 1 m/s 582 mmHg 82%
    20:00 +2°C° 0 mm 1 m/s 582 mmHg 82%
    21:00 +2°C° 0 mm 1 m/s 582 mmHg 83%
    22:00 +2°C° 0 mm 1 m/s 582 mmHg 83%
    23:00 +2°C° 0 mm 1 m/s 581 mmHg 83%

    26 Outubro, Sexta-feira

    Tempo Temperatura Precipitação Vento Pressão Humidade
    00:00 +1°C° 0 mm 1 m/s 581 mmHg 84%
    01:00 +1°C° 0 mm 1 m/s 581 mmHg 84%
    02:00 +1°C° 0 mm 1 m/s 581 mmHg 84%
    03:00 +1°C° 0 mm 1 m/s 580 mmHg 84%
    04:00 +1°C° 0 mm 1 m/s 580 mmHg 85%
    05:00 +1°C° 0 mm 1 m/s 580 mmHg 84%
    06:00 +1°C° 0 mm 1 m/s 579 mmHg 84%
    07:00 +1°C° 0 mm 1 m/s 579 mmHg 84%
    08:00 +1°C° 0 mm 2 m/s 580 mmHg 77%
    09:00 +3°C° 0 mm 2 m/s 580 mmHg 70%
    10:00 +5°C° 0 mm 2 m/s 581 mmHg 63%
    11:00 +6°C° 0 mm 2 m/s 581 mmHg 62%
    12:00 +6°C° 0 mm 2 m/s 581 mmHg 61%
    13:00 +7°C° 0 mm 2 m/s 581 mmHg 60%
    14:00 +6°C° 0.1 mm 2 m/s 580 mmHg 65%
    15:00 +6°C° 0.1 mm 2 m/s 580 mmHg 71%
    16:00 +5°C° 0.1 mm 2 m/s 579 mmHg 76%
    17:00 +4°C° 0.1 mm 2 m/s 579 mmHg 82%
    18:00 +3°C° 0.1 mm 2 m/s 578 mmHg 87%
    19:00 +2°C° 0.1 mm 2 m/s 578 mmHg 92%
    20:00 +2°C° 0.2 mm 2 m/s 577 mmHg 93%
    21:00 +2°C° 0.2 mm 2 m/s 577 mmHg 94%
    22:00 +2°C° 0.2 mm 2 m/s 577 mmHg 95%
    23:00 +2°C° 0.6 mm 2 m/s 576 mmHg 95%

    27 Outubro, Sábado

    Tempo Temperatura Precipitação Vento Pressão Humidade
    00:00 +2°C° 0.6 mm 2 m/s 575 mmHg 95%
    01:00 +2°C° 0.6 mm 2 m/s 575 mmHg 95%
    02:00 +2°C° 0.9 mm 2 m/s 574 mmHg 94%
    03:00 +1°C° 0.9 mm 3 m/s 574 mmHg 94%
    04:00 +1°C° 0.9 mm 3 m/s 573 mmHg 94%
    05:00 +1°C° 1.6 mm 3 m/s 573 mmHg 95%
    06:00 +1°C° 1.6 mm 3 m/s 573 mmHg 95%
    07:00 +1°C° 1.6 mm 3 m/s 572 mmHg 96%
    08:00 +1°C° 2 mm 3 m/s 572 mmHg 95%
    09:00 +1°C° 2 mm 3 m/s 572 mmHg 95%
    10:00 +2°C° 2 mm 2 m/s 572 mmHg 95%
    11:00 +2°C° 2.8 mm 2 m/s 572 mmHg 95%
    12:00 +1°C° 2.8 mm 2 m/s 572 mmHg 95%
    13:00 +1°C° 2.8 mm 2 m/s 572 mmHg 95%
    14:00 +1°C° 3.1 mm 2 m/s 571 mmHg 95%
    15:00 -1°C° 3.1 mm 2 m/s 571 mmHg 95%
    16:00 -1°C° 3.1 mm 2 m/s 571 mmHg 95%
    17:00 -2°C° 2.4 mm 2 m/s 570 mmHg 95%
    18:00 -2°C° 2.4 mm 2 m/s 570 mmHg 95%
    19:00 -3°C° 2.4 mm 2 m/s 570 mmHg 95%
    20:00 -3°C° 1.9 mm 2 m/s 570 mmHg 95%
    21:00 -4°C° 1.9 mm 2 m/s 570 mmHg 96%
    22:00 -2°C° 1.9 mm 1 m/s 569 mmHg 96%
    23:00 -2°C° 1 mm 1 m/s 569 mmHg 96%

    28 Outubro, Domingo

    Tempo Temperatura Precipitação Vento Pressão Humidade
    00:00 -2°C° 1 mm 1 m/s 569 mmHg 96%
    01:00 -2°C° 1 mm 1 m/s 569 mmHg 96%
    02:00 -2°C° 0.6 mm 1 m/s 569 mmHg 96%
    03:00 -3°C° 0.6 mm 2 m/s 569 mmHg 96%
    04:00 -3°C° 0.6 mm 2 m/s 568 mmHg 96%
    05:00 -3°C° 0.3 mm 2 m/s 569 mmHg 96%
    06:00 -4°C° 0.3 mm 2 m/s 569 mmHg 96%
    07:00 -5°C° 0.3 mm 3 m/s 569 mmHg 96%
    08:00 -4°C° 0.2 mm 3 m/s 569 mmHg 94%
    09:00 -4°C° 0.2 mm 3 m/s 570 mmHg 92%
    10:00 -2°C° 0.2 mm 3 m/s 571 mmHg 90%
    11:00 -2°C° 0.2 mm 3 m/s 571 mmHg 87%
    12:00 -2°C° 0.2 mm 3 m/s 572 mmHg 83%
    13:00 -2°C° 0.2 mm 3 m/s 572 mmHg 80%
    14:00 -2°C° 0.1 mm 3 m/s 572 mmHg 80%
    15:00 -3°C° 0.1 mm 2 m/s 572 mmHg 79%
    16:00 -3°C° 0.1 mm 2 m/s 573 mmHg 78%
    17:00 -5°C° 0.1 mm 2 m/s 572 mmHg 81%
    18:00 -4°C° 0.1 mm 1 m/s 572 mmHg 84%
    19:00 -7°C° 0.1 mm 1 m/s 572 mmHg 86%
    20:00 -7°C° 0 mm 1 m/s 572 mmHg 86%
    21:00 -7°C° 0 mm 1 m/s 573 mmHg 85%
    22:00 -8°C° 0 mm 1 m/s 573 mmHg 84%
    23:00 -7°C° 0 mm 1 m/s 573 mmHg 83%
    Mostrar mais